Regional Weather Roundup
Issued by NWS Kansas City/Pleasant Hill, MO

Home | Current Version | Previous Version | Text Only | Print | Product List | Glossary On
Versions: 1 2 3 4 5 6 7 8 9 10 11 12 13 14 15 16 17 18 19 20 21 22 23 24 25 26 27
000
ASUS43 KEAX 250110
RWREAX

WEATHER ROUNDUP FOR EASTERN KANSAS AND NORTHWEST MISSOURI
NATIONAL WEATHER SERVICE KANSAS CITY/PLEASANT HILL MO
800 PM CDT MON JUL 24 2017

KSZ040-057-103>105-MOZ028-029-037-043-250200-
...KANSAS CITY METROPOLITAN AREA...

CITY           SKY/WX    TMP DP  RH WIND       PRES   REMARKS
K.C. INTL      PTCLDY    83  68  60 E10       29.98S
K.C. DOWNTOWN  CLEAR     83  68  60 E9        29.95S
LEES SUMMIT    CLEAR     81  69  67 E6        29.99S
OLATHE - IXD   CLEAR     84  72  67 E5        29.97F
OLATHE - OJC   CLEAR     82  71  69 E7        29.98S
LAWRENCE       MOCLDY    85  76  74 E3        29.95F HX  94

$$

MOZ001>008-011>017-020>025-030>033-038>040-044>046-053-054-250200-
...NORTHERN AND CENTRAL MISSOURI...

CITY           SKY/WX    TMP DP  RH WIND       PRES   REMARKS
ST. JOSEPH     CLEAR     82  68  62 SE9       29.97S
MOSBY          CLEAR     81  66  61 SE3       29.98S
WARRENSBURG    CLEAR     79  68  69 NE5       29.98S
WHITEMAN AFB   CLEAR     81  70  69 NE6       29.97S
CLINTON        CLEAR     82  70  65 NE5       29.97S
SEDALIA        CLEAR     81  71  71 NE6       29.99S
WARSAW         NOT AVBL
CHILLICOTHE      N/A     81  67  62 CALM      30.00S
KIRKSVILLE     CLEAR     79  64  60 E3        30.01F

$$

MOZ041-047>049-056>058-063>065-088>090-097-250200-
...EASTERN AND SOUTHERN MISSOURI...

CITY           SKY/WX    TMP DP  RH WIND       PRES   REMARKS
ST. LOUIS INTL PTCLDY    86  64  47 N9        29.98R
SPIRIT OF STL  CLEAR     84  66  54 NE6       29.96R
COLUMBIA       CLEAR     79  68  69 NE5       29.99R
JEFFERSON CITY CLEAR     84  68  58 NE7       29.96R
ROLLA          CLEAR     81  67  62 N7        29.98R
OSAGE BEACH    CLEAR     84  67  56 NE6       29.97R
SPRINGFIELD    CLOUDY    85  73  67 CALM      29.96S HX  91
BRANSON        PTCLDY    88  68  51 N3        29.98R HX  91
JOPLIN         CLEAR     92  75  57 CALM      29.95R HX 103
WEST PLAINS    CLOUDY    86  71  60 CALM      29.98R HX  91

$$

IAZ060-094-KSZ022-034>040-054-083-096-NEZ052-066-093-250200-
...KANSAS...SOUTHEAST NEBRASKA AND IOWA...

CITY           SKY/WX    TMP DP  RH WIND       PRES   REMARKS
TOPEKA         CLEAR     85  75  72 E5        29.95S HX  93
MANHATTAN      CLEAR     89  74  60 SE7       29.93S HX  98
EMPORIA        PTCLDY    89  72  56 S7        29.95S HX  96
CHANUTE        CLEAR     91  70  49 E7        29.95R HX  96
WICHITA        PTCLDY    92  67  43 S8        29.93R HX  95
OMAHA          PTCLDY    84  67  56 S13       29.96S
LINCOLN        CLEAR     84  67  56 SE16      29.95R
FALLS CITY     CLEAR     80  70  71 E7        29.95S
LAMONI         CLEAR     80  64  58 SE5       30.00R
DES MOINES     PTCLDY    80  63  55 E8        29.99F

$$





USA.gov is the U.S. government's official web portal to all federal, state and local government web resources and services.